sat.trackr.live / text

‹ back to catalog

YAOGAN-40 02C

NORAD 63920 · 2025-096C

PAYLOAD ACTIVE UNKNOWN

§ Identity

Operator
Country
PRC
Launch date
2025-05-11
Launch site
TAISC
Launch vehicle
Mass (kg)
RCS (m²)

External: N2YO · Heavens-Above · Gunter

§ Orbital elements

Epoch: 2026-09-21T21:50:25.893888Z

Period
101.95 min
Inclination
85.9971°
Eccentricity
0.0002183
Mean motion
14.12462526 rev/d
Perigee alt
849.4 km
Apogee alt
852.5 km
Semi-major
7,229.1 km
B*
3.8032e-5
RAAN
143.9097°
Arg perigee
86.9640°
Mean anomaly
273.1793°
Rev number
8,906

§ Raw data

YAOGAN-40 02C1 63920U 25096C   26264.91002192  .00000089  00000+0  38032-4 0  99922 63920  85.9971 143.9097 0002183  86.9640 273.1793 14.12462526 89069

JSON: /api/v1/satellites/63920 · /tle

For live sub-satellite position, see the globe view (requires WebGL).

§ Visibility from observer

Set your observer location to see the next 7 days of passes ≥ 10°. The values pass through the URL so the page stays shareable.

No JS? Fill the form by hand. The geolocation button needs JavaScript.